LAOSAT 1

Last updated on Sept. 30, 2020, 5:50 a.m. UTC

1 41034U 15067A   20273.88119417 -.00000360  00000-0  00000-0 0  9994
2 41034   0.0336 333.8934 0001839 180.9906 299.9477  1.00274332 17954
UTC
Height (km)
Latitude
Longitude
Inclination
Orbital Period
UTC large
Height (km)
Speed (km/s)
/
Latitude / Longitude
Inclination (degrees)
Orbital Period (minutes)
Azimuth
Elevation
Range (km)
Doppler Factor
iOS Compass Heading
iOS Angle

Next 30 passes for location: Hong Kong

Rise time Rise Azimuth (degrees) Set time Set Azimuth (degrees) Duration Max altitude (degrees)

No matching passes for this satellites